Volver al catálogo

COSMOS 2251 DEB

ActivoLEO
NORAD 34965·DEBRIS·🇷🇺 Russia

Lanzado Jun 16, 1993 desde Plesetsk Cosmodrome

Loading…

Próximos Pases (próximas 24 horas)

TLE

ActualizadoSource: Space-Track

Época: Sep 14, 2026, 21:15 UTC

1 34965U 93036AEU 26257.88605571  .00000523  00000-0  14382-3 0  9991
2 34965  74.0531 331.2335 0025243  24.6430 335.5930 14.49230956911130

Sigue COSMOS 2251 DEB en tiempo real con AllMySat

Download on the App Store